Flag for Germany Weather past 2 weeks in Herten, North Rhine-Westphalia, Germany

Now
48 °F

Light rain. Low clouds.


Feels Like: 45 °F
Forecast: 40 / 47 °F
Wind: 7 mph from Southwest

Location: Essen

Current Time: Mar 29, 2015 at 1:24:23 PM

Latest Report: Mar 29, 2015 at 1:00 PM


Visibility: 7 mi

Pressure: 29.56 "Hg

Humidity: 96%

Dew point: 47 °F

Location of HertenLocation

Historic Weather in Herten — Graph

°F

Herten temperature yesterday

Maximum temperature yesterday: 52 °F (at 12:00 PM)
Minimum temperature yesterday: 36 °F (at 5:00 AM)
Average temperature yesterday: 44 °F

Past Weeks' High & Low Weather Summary

 TemperatureHumidityPressure
High62 °F (Mar 17, 3:00 PM)100% (Mar 19, 12:00 AM)30.39 "Hg (Mar 19, 12:00 AM)
Low34 °F (Mar 23, 4:00 AM)39% (Mar 17, 3:00 PM)29.59 "Hg (Mar 29, 12:00 PM)
Average43 °F82%30.10 "Hg
* Reported Mar 14 11:00 AM — Mar 29 12:00 Noon, Herten, Weather by CustomWeather, © 2015

Note: Actual official high and low records may vary slightly from our data, if they occured in-between our weather recording intervals... More about our weather records

Advertising

Herten weather history for previous 24 hours

 ConditionsComfort  
Time TempWeatherWind HumidityBarometerVisibility
12:00 PM
Sun, Mar 29
47 °FLight freezing rain. Low clouds.8 mph99%29.59 "Hg3 mi
11:00 AM47 °FLight rain. Low clouds.8 mph100%29.62 "Hg2 mi
10:00 AM47 °FLight rain. Low clouds.6 mph90%29.65 "Hg6 mi
9:00 AM48 °FLight freezing rain. Low clouds.7 mph86%29.67 "Hg7 mi
8:00 AM49 °FOvercast.8 mph79%29.67 "Hg19 mi
7:00 AM50 °FOvercast.8 mph79%29.69 "Hg19 mi
5:00 AM50 °FOvercast.8 mph82%29.71 "Hg34 mi
4:00 AM51 °FOvercast.8 mph82%29.71 "Hg34 mi
3:00 AM52 °FOvercast.10 mph84%29.75 "Hg37 mi
1:00 AM52 °FLow clouds.7 mph97%29.73 "Hg6 mi
12:00 AM51 °FDrizzle. Low clouds.8 mph100%29.77 "Hg2 mi
11:00 PM
Sat, Mar 28
49 °FRain. Low clouds.5 mph100%29.80 "Hg1 mi
10:00 PM49 °FDrizzle. Low clouds.6 mph99%29.81 "Hg6 mi
9:00 PM48 °FLow clouds.5 mph99%29.83 "Hg6 mi
8:00 PM49 °FRain. Low clouds.5 mph97%29.86 "Hg1 mi
7:00 PM47 °FDrizzle. Low clouds.5 mph99%29.88 "Hg3 mi
6:00 PM47 °FLow clouds.5 mph99%29.89 "Hg3 mi
5:00 PM46 °FLight freezing rain. Low clouds.5 mph100%29.92 "Hg1 mi
4:00 PM46 °FLight freezing rain. Low clouds.5 mph99%29.94 "Hg2 mi
3:00 PM48 °FLight freezing rain. Low clouds.6 mph90%29.96 "Hg4 mi
2:00 PM50 °FLight rain. Overcast.7 mph76%29.99 "Hg9 mi
1:00 PM51 °FLight rain. Overcast.6 mph58%30.01 "Hg15 mi
Weather by CustomWeather, © 2015

See weather overviewHow to use our weather pages